Location: Home
(42.5358°N, 72.7383°W)
Time: 04:20:58
(UTC-04:00)

Vanguard 1 - Pass Details

Date: 27 May 2022
Orbit: 649 x 3832 km, 34.2° (Epoch: 24 June)

Event Time Altitude Azimuth Distance (km) Brightness Sun altitude
Exits shadow 01:17:33 37° 190° (S) 3,327 12.1 -25.8°
Maximum altitude 01:22:37 47° 149° (SSE) 3,384 12.4 -25.7°
Drops below altitude 10° 01:42:00 10° 85° (E) 6,773 14.5 -25.0°
Sets 01:47:59 0° 81° (E) 7,949 15.0 -24.7°
